Location: Alpha Ridge Park
(39.3209°N, 76.9128°W)
Time: 03:16:45
(UTC-04:00)

BEESAT - Pass Details

Date: 08 July 2022
Orbit: 700 x 706 km, 98.6° (Epoch: 14 August)

Event Time Altitude Azimuth Distance (km) Brightness Sun altitude
Rises 22:59:02 0° 352° (N) 3,105 ? -20.8°
Reaches altitude 10° 23:02:23 10° 327° (NNW) 2,182 ? -21.2°
Maximum altitude 23:04:41 14° 298° (WNW) 1,941 ? -21.4°
Drops below altitude 10° 23:07:00 10° 269° (W) 2,176 ? -21.7°
Sets 23:10:20 0° 244° (WSW) 3,090 ? -22.0°
